Year,Month,Day,Hour,Minute,Value (Times are PST for temperature in C)
2012,03,12,00,00,3.50
2012,03,12,00,01,3.50
2012,03,12,00,02,3.50
2012,03,12,00,03,3.40
2012,03,12,00,04,3.40
2012,03,12,00,05,3.40
2012,03,12,00,06,3.40
2012,03,12,00,07,3.40
2012,03,12,00,08,3.40
2012,03,12,00,09,3.50
2012,03,12,00,10,3.50
2012,03,12,00,11,3.50
2012,03,12,00,12,3.40
2012,03,12,00,13,3.40
2012,03,12,00,14,3.50
2012,03,12,00,15,3.50
2012,03,12,00,16,3.50
2012,03,12,00,17,3.40
2012,03,12,00,18,3.40
2012,03,12,00,19,3.40
2012,03,12,00,20,3.40
2012,03,12,00,21,3.40
2012,03,12,00,22,3.40
2012,03,12,00,23,3.40
2012,03,12,00,24,3.40
2012,03,12,00,25,3.40
2012,03,12,00,26,3.40
2012,03,12,00,27,3.40
2012,03,12,00,28,3.40
2012,03,12,00,29,3.50
2012,03,12,00,30,3.60
2012,03,12,00,31,3.60
2012,03,12,00,32,3.60
2012,03,12,00,33,3.50
2012,03,12,00,34,3.50
2012,03,12,00,35,3.50
2012,03,12,00,36,3.40
2012,03,12,00,37,3.40
2012,03,12,00,38,3.40
2012,03,12,00,39,3.40
2012,03,12,00,40,3.40
2012,03,12,00,41,3.40
2012,03,12,00,42,3.40
2012,03,12,00,43,3.40
2012,03,12,00,44,3.40
2012,03,12,00,45,3.40
2012,03,12,00,46,3.40
2012,03,12,00,47,3.40
2012,03,12,00,48,3.40
2012,03,12,00,49,3.40
2012,03,12,00,50,3.40
2012,03,12,00,51,3.40
2012,03,12,00,52,3.40
2012,03,12,00,53,3.40
2012,03,12,00,54,3.40
2012,03,12,00,55,3.40
2012,03,12,00,56,3.30
2012,03,12,00,57,3.30
2012,03,12,00,58,3.30
2012,03,12,00,59,3.30
2012,03,12,01,00,3.30
2012,03,12,01,01,3.30
2012,03,12,01,02,3.40
2012,03,12,01,03,3.40
2012,03,12,01,04,3.60
2012,03,12,01,05,3.60
2012,03,12,01,06,3.60
2012,03,12,01,07,3.60
2012,03,12,01,08,3.60
2012,03,12,01,09,3.50
2012,03,12,01,10,3.50
2012,03,12,01,11,3.40
2012,03,12,01,12,3.40
2012,03,12,01,13,3.40
2012,03,12,01,14,3.40
2012,03,12,01,15,3.40
2012,03,12,01,16,3.40
2012,03,12,01,17,3.40
2012,03,12,01,18,3.40
2012,03,12,01,19,3.40
2012,03,12,01,20,3.50
2012,03,12,01,21,3.50
2012,03,12,01,22,3.50
2012,03,12,01,23,3.50
2012,03,12,01,24,3.50
2012,03,12,01,25,3.40
2012,03,12,01,26,3.40
2012,03,12,01,27,3.40
2012,03,12,01,28,3.40
2012,03,12,01,29,3.40
2012,03,12,01,30,3.40
2012,03,12,01,31,3.40
2012,03,12,01,32,3.50
2012,03,12,01,33,3.40
2012,03,12,01,34,3.40
2012,03,12,01,35,3.40
2012,03,12,01,36,3.40
2012,03,12,01,37,3.40
2012,03,12,01,38,3.40
2012,03,12,01,39,3.40
2012,03,12,01,40,3.50
2012,03,12,01,41,3.50
2012,03,12,01,42,3.40
2012,03,12,01,43,3.50
2012,03,12,01,44,3.50
2012,03,12,01,45,3.50
2012,03,12,01,46,3.50
2012,03,12,01,47,3.50
2012,03,12,01,48,3.50
2012,03,12,01,49,3.50
2012,03,12,01,50,3.40
2012,03,12,01,51,3.40
2012,03,12,01,52,3.40
2012,03,12,01,53,3.40
2012,03,12,01,54,3.40
2012,03,12,01,55,3.40
2012,03,12,01,56,3.50
2012,03,12,01,57,3.60
2012,03,12,01,58,3.60
2012,03,12,01,59,3.50
2012,03,12,02,00,3.50
2012,03,12,02,01,3.50
2012,03,12,02,02,3.40
2012,03,12,02,03,3.40
2012,03,12,02,04,3.40
2012,03,12,02,05,3.40
2012,03,12,02,06,3.40
2012,03,12,02,07,3.40
2012,03,12,02,08,3.40
2012,03,12,02,09,3.40
2012,03,12,02,10,3.40
2012,03,12,02,11,3.40
2012,03,12,02,12,3.40
2012,03,12,02,13,3.40
2012,03,12,02,14,3.40
2012,03,12,02,15,3.40
2012,03,12,02,16,3.40
2012,03,12,02,17,3.40
2012,03,12,02,18,3.40
2012,03,12,02,19,3.40
2012,03,12,02,20,3.40
2012,03,12,02,21,3.40
2012,03,12,02,22,3.40
2012,03,12,02,23,3.40
2012,03,12,02,24,3.40
2012,03,12,02,25,3.40
2012,03,12,02,26,3.40
2012,03,12,02,27,3.40
2012,03,12,02,28,3.40
2012,03,12,02,29,3.50
2012,03,12,02,30,3.50
2012,03,12,02,31,3.50
2012,03,12,02,32,3.60
2012,03,12,02,33,3.50
2012,03,12,02,34,3.50
2012,03,12,02,35,3.50
2012,03,12,02,36,3.50
2012,03,12,02,37,3.50
2012,03,12,02,38,3.50
2012,03,12,02,39,3.40
2012,03,12,02,40,3.50
2012,03,12,02,41,3.50
2012,03,12,02,42,3.50
2012,03,12,02,43,3.50
2012,03,12,02,44,3.50
2012,03,12,02,45,3.60
2012,03,12,02,46,3.60
2012,03,12,02,47,3.60
2012,03,12,02,48,3.60
2012,03,12,02,49,3.70
2012,03,12,02,50,3.70
2012,03,12,02,51,3.70
2012,03,12,02,52,3.70
2012,03,12,02,53,3.70
2012,03,12,02,54,3.70
2012,03,12,02,55,3.70
2012,03,12,02,56,3.70
2012,03,12,02,57,3.60
2012,03,12,02,58,3.60
2012,03,12,02,59,3.70
2012,03,12,03,00,3.70
2012,03,12,03,01,3.70
2012,03,12,03,02,3.70
2012,03,12,03,03,3.70
2012,03,12,03,04,3.70
2012,03,12,03,05,3.70
2012,03,12,03,06,3.80
2012,03,12,03,07,3.70
2012,03,12,03,08,3.70
2012,03,12,03,09,3.70
2012,03,12,03,10,3.70
2012,03,12,03,11,3.70
2012,03,12,03,12,3.70
2012,03,12,03,13,3.70
2012,03,12,03,14,3.70
2012,03,12,03,15,3.70
2012,03,12,03,16,3.70
2012,03,12,03,17,3.80
2012,03,12,03,18,3.80
2012,03,12,03,19,3.80
2012,03,12,03,20,3.80
2012,03,12,03,21,3.80
2012,03,12,03,22,3.80
2012,03,12,03,23,3.80
2012,03,12,03,24,3.80
2012,03,12,03,25,3.80
2012,03,12,03,26,3.80
2012,03,12,03,27,3.80
2012,03,12,03,28,3.80
2012,03,12,03,29,3.80
2012,03,12,03,30,3.80
2012,03,12,03,31,3.80
2012,03,12,03,32,3.80
2012,03,12,03,33,3.80
2012,03,12,03,34,3.80
2012,03,12,03,35,3.90
2012,03,12,03,36,3.90
2012,03,12,03,37,3.90
2012,03,12,03,38,3.90
2012,03,12,03,39,3.90
2012,03,12,03,40,3.90
2012,03,12,03,41,3.90
2012,03,12,03,42,3.90
2012,03,12,03,43,3.90
2012,03,12,03,44,3.90
2012,03,12,03,45,3.90
2012,03,12,03,46,3.90
2012,03,12,03,47,3.90
2012,03,12,03,48,3.90
2012,03,12,03,49,3.90
2012,03,12,03,50,3.90
2012,03,12,03,51,3.90
2012,03,12,03,52,3.90
2012,03,12,03,53,3.90
2012,03,12,03,54,3.90
2012,03,12,03,55,3.90
2012,03,12,03,56,3.90
2012,03,12,03,57,3.90
2012,03,12,03,58,3.90
2012,03,12,03,59,3.90
2012,03,12,04,00,3.90
2012,03,12,04,01,3.90
2012,03,12,04,02,3.90
2012,03,12,04,03,3.90
2012,03,12,04,04,3.90
2012,03,12,04,05,3.90
2012,03,12,04,06,3.90
2012,03,12,04,07,3.90
2012,03,12,04,08,3.90
2012,03,12,04,09,3.90
2012,03,12,04,10,3.90
2012,03,12,04,11,3.90
2012,03,12,04,12,4.00
2012,03,12,04,13,4.00
2012,03,12,04,14,4.00
2012,03,12,04,15,4.00
2012,03,12,04,16,4.00
2012,03,12,04,17,4.00
2012,03,12,04,18,4.00
2012,03,12,04,19,4.00
2012,03,12,04,20,4.00
2012,03,12,04,21,4.10
2012,03,12,04,22,4.00
2012,03,12,04,23,4.00
2012,03,12,04,24,4.00
2012,03,12,04,25,3.90
2012,03,12,04,26,3.90
2012,03,12,04,27,3.90
2012,03,12,04,28,3.90
2012,03,12,04,29,3.90
2012,03,12,04,30,3.80
2012,03,12,04,31,3.90
2012,03,12,04,32,3.80
2012,03,12,04,33,3.80
2012,03,12,04,34,3.90
2012,03,12,04,35,3.90
2012,03,12,04,36,3.90
2012,03,12,04,37,3.90
2012,03,12,04,38,3.90
2012,03,12,04,39,3.90
2012,03,12,04,40,3.90
2012,03,12,04,41,3.80
2012,03,12,04,42,3.80
2012,03,12,04,43,3.80
2012,03,12,04,44,3.80
2012,03,12,04,45,3.70
2012,03,12,04,46,3.70
2012,03,12,04,47,3.70
2012,03,12,04,48,3.70
2012,03,12,04,49,3.70
2012,03,12,04,50,3.70
2012,03,12,04,51,3.80
2012,03,12,04,52,3.80
2012,03,12,04,53,3.80
2012,03,12,04,54,3.80
2012,03,12,04,55,3.80
2012,03,12,04,56,3.80
2012,03,12,04,57,3.80
2012,03,12,04,58,3.80
2012,03,12,04,59,3.70
2012,03,12,05,00,3.70
2012,03,12,05,01,3.70
2012,03,12,05,02,3.70
2012,03,12,05,03,3.70
2012,03,12,05,04,3.70
2012,03,12,05,05,3.60
2012,03,12,05,06,3.60
2012,03,12,05,07,3.60
2012,03,12,05,08,3.70
2012,03,12,05,09,3.60
2012,03,12,05,10,3.70
2012,03,12,05,11,3.70
2012,03,12,05,12,3.70
2012,03,12,05,13,3.70
2012,03,12,05,14,3.70
2012,03,12,05,15,3.70
2012,03,12,05,16,3.70
2012,03,12,05,17,3.70
2012,03,12,05,18,3.80
2012,03,12,05,19,3.70
2012,03,12,05,20,3.70
2012,03,12,05,21,3.80
2012,03,12,05,22,3.80
2012,03,12,05,23,3.70
2012,03,12,05,24,3.80
2012,03,12,05,25,3.80
2012,03,12,05,26,3.80
2012,03,12,05,27,3.80
2012,03,12,05,28,3.80
2012,03,12,05,29,3.80
2012,03,12,05,30,3.80
2012,03,12,05,31,3.80
2012,03,12,05,32,3.80
2012,03,12,05,33,3.80
2012,03,12,05,34,3.80
2012,03,12,05,35,3.80
2012,03,12,05,36,3.80
2012,03,12,05,37,3.80
2012,03,12,05,38,3.80
2012,03,12,05,39,3.70
2012,03,12,05,40,3.80
2012,03,12,05,41,3.80
2012,03,12,05,42,3.80
2012,03,12,05,43,3.80
2012,03,12,05,44,3.80
2012,03,12,05,45,3.80
2012,03,12,05,46,3.80
2012,03,12,05,47,3.80
2012,03,12,05,48,3.90
2012,03,12,05,49,3.90
2012,03,12,05,50,3.90
2012,03,12,05,51,3.90
2012,03,12,05,52,3.80
2012,03,12,05,53,3.80
2012,03,12,05,54,3.80
2012,03,12,05,55,3.70
2012,03,12,05,56,3.70
2012,03,12,05,57,3.70
2012,03,12,05,58,3.70
2012,03,12,05,59,3.70
2012,03,12,06,00,3.70
2012,03,12,06,01,3.70
2012,03,12,06,02,3.70
2012,03,12,06,03,3.70
2012,03,12,06,04,3.70
2012,03,12,06,05,3.70
2012,03,12,06,06,3.70
2012,03,12,06,07,3.70
2012,03,12,06,08,3.70
2012,03,12,06,09,3.70
2012,03,12,06,10,3.70
2012,03,12,06,11,3.70
2012,03,12,06,12,3.70
2012,03,12,06,13,3.70
2012,03,12,06,14,3.80
2012,03,12,06,15,3.80
2012,03,12,06,16,3.80
2012,03,12,06,17,3.80
2012,03,12,06,18,3.80
2012,03,12,06,19,3.80
2012,03,12,06,20,3.80
2012,03,12,06,21,3.80
2012,03,12,06,22,3.80
2012,03,12,06,23,3.80
2012,03,12,06,24,3.80
2012,03,12,06,25,3.80
2012,03,12,06,26,3.70
2012,03,12,06,27,3.70
2012,03,12,06,28,3.80
2012,03,12,06,29,3.80
2012,03,12,06,30,3.80
2012,03,12,06,31,3.80
2012,03,12,06,32,3.70
2012,03,12,06,33,3.70
2012,03,12,06,34,3.70
2012,03,12,06,35,3.70
2012,03,12,06,36,3.70
2012,03,12,06,37,3.70
2012,03,12,06,38,3.60
2012,03,12,06,39,3.60
2012,03,12,06,40,3.60
2012,03,12,06,41,3.60
2012,03,12,06,42,3.60
2012,03,12,06,43,3.60
2012,03,12,06,44,3.60
2012,03,12,06,45,3.60
2012,03,12,06,46,3.60
2012,03,12,06,47,3.60
2012,03,12,06,48,3.60
2012,03,12,06,49,3.60
2012,03,12,06,50,3.70
2012,03,12,06,51,3.70
2012,03,12,06,52,3.70
2012,03,12,06,53,3.70
2012,03,12,06,54,3.70
2012,03,12,06,55,3.70
2012,03,12,06,56,3.70
2012,03,12,06,57,3.70
2012,03,12,06,58,3.60
2012,03,12,06,59,3.60
2012,03,12,07,00,3.60
2012,03,12,07,01,3.60
2012,03,12,07,02,3.60
2012,03,12,07,03,3.50
2012,03,12,07,04,3.50
2012,03,12,07,05,3.50
2012,03,12,07,06,3.50
2012,03,12,07,07,3.50
2012,03,12,07,08,3.60
2012,03,12,07,09,3.60
2012,03,12,07,10,3.60
2012,03,12,07,11,3.60
2012,03,12,07,12,3.60
2012,03,12,07,13,3.60
2012,03,12,07,14,3.60
2012,03,12,07,15,3.50
2012,03,12,07,16,3.50
2012,03,12,07,17,3.50
2012,03,12,07,18,3.50
2012,03,12,07,19,3.50
2012,03,12,07,20,3.50
2012,03,12,07,21,3.50
2012,03,12,07,22,3.50
2012,03,12,07,23,3.50
2012,03,12,07,24,3.50
2012,03,12,07,25,3.60
2012,03,12,07,26,3.60
2012,03,12,07,27,3.50
2012,03,12,07,28,3.50
2012,03,12,07,29,3.50
2012,03,12,07,30,3.50
2012,03,12,07,31,3.50
2012,03,12,07,32,3.50
2012,03,12,07,33,3.50
2012,03,12,07,34,3.50
2012,03,12,07,35,3.50
2012,03,12,07,36,3.50
2012,03,12,07,37,3.60
2012,03,12,07,38,3.60
2012,03,12,07,39,3.60
2012,03,12,07,40,3.60
2012,03,12,07,41,3.60
2012,03,12,07,42,3.70
2012,03,12,07,43,3.70
2012,03,12,07,44,3.70
2012,03,12,07,45,3.80
2012,03,12,07,46,3.80
2012,03,12,07,47,3.80
2012,03,12,07,48,3.80
2012,03,12,07,49,3.80
2012,03,12,07,50,3.70
2012,03,12,07,51,3.70
2012,03,12,07,52,3.70
2012,03,12,07,53,3.70
2012,03,12,07,54,3.70
2012,03,12,07,55,3.70
2012,03,12,07,56,3.70
2012,03,12,07,57,3.70
2012,03,12,07,58,3.70
2012,03,12,07,59,3.70
2012,03,12,08,00,3.70
2012,03,12,08,01,3.70
2012,03,12,08,02,3.80
2012,03,12,08,03,3.80
2012,03,12,08,04,3.80
2012,03,12,08,05,3.80
2012,03,12,08,06,3.80
2012,03,12,08,07,3.80
2012,03,12,08,08,3.90
2012,03,12,08,09,3.90
2012,03,12,08,10,3.90
2012,03,12,08,11,3.90
2012,03,12,08,12,4.00
2012,03,12,08,13,4.00
2012,03,12,08,14,4.00
2012,03,12,08,15,4.00
2012,03,12,08,16,4.00
2012,03,12,08,17,3.90
2012,03,12,08,18,3.90
2012,03,12,08,19,3.90
2012,03,12,08,20,3.90
2012,03,12,08,21,3.80
2012,03,12,08,22,3.90
2012,03,12,08,23,3.90
2012,03,12,08,24,3.90
2012,03,12,08,25,3.90
2012,03,12,08,26,3.90
2012,03,12,08,27,3.90
2012,03,12,08,28,3.90
2012,03,12,08,29,3.90
2012,03,12,08,30,3.90
2012,03,12,08,31,3.90
2012,03,12,08,32,3.90
2012,03,12,08,33,3.90
2012,03,12,08,34,3.90
2012,03,12,08,35,3.90
2012,03,12,08,36,4.00
2012,03,12,08,37,4.00
2012,03,12,08,38,4.00
2012,03,12,14,14,4.30
2012,03,12,14,15,4.30
2012,03,12,14,16,4.30
2012,03,12,14,17,4.30
2012,03,12,14,18,4.20
2012,03,12,14,19,4.20
2012,03,12,14,20,4.10
2012,03,12,14,21,4.10
2012,03,12,14,22,4.00
2012,03,12,14,23,4.00
2012,03,12,14,24,4.00
2012,03,12,14,25,3.90
2012,03,12,14,26,3.90
2012,03,12,14,27,3.90
2012,03,12,14,28,3.90
2012,03,12,14,29,3.90
2012,03,12,14,30,3.90
2012,03,12,14,31,3.90
2012,03,12,14,32,3.90
2012,03,12,14,33,3.90
2012,03,12,14,34,3.90
2012,03,12,14,35,3.90
2012,03,12,14,36,3.90
2012,03,12,14,37,3.80
2012,03,12,14,38,3.80
2012,03,12,14,39,3.80
2012,03,12,14,40,3.80
2012,03,12,14,41,3.80
2012,03,12,14,42,3.80
2012,03,12,14,43,3.80
2012,03,12,14,44,3.80
2012,03,12,14,45,3.80
2012,03,12,14,46,3.80
2012,03,12,14,47,3.80
2012,03,12,14,48,3.80
2012,03,12,14,49,3.80
2012,03,12,14,50,3.80
2012,03,12,14,51,3.80
2012,03,12,14,52,3.80
2012,03,12,14,53,3.70
2012,03,12,14,54,3.70
2012,03,12,14,55,3.70
2012,03,12,14,56,3.80
2012,03,12,14,57,3.80
2012,03,12,14,58,3.80
2012,03,12,14,59,3.80
2012,03,12,15,00,3.80
2012,03,12,15,01,3.80
2012,03,12,15,02,3.80
2012,03,12,15,03,3.80
2012,03,12,15,04,3.90
2012,03,12,15,05,3.90
2012,03,12,15,06,4.00
2012,03,12,15,07,4.00
2012,03,12,15,08,4.00
2012,03,12,15,09,4.00
2012,03,12,15,10,4.00
2012,03,12,15,11,4.00
2012,03,12,15,12,4.00
2012,03,12,15,13,3.90
2012,03,12,15,14,3.90
2012,03,12,15,15,3.90
2012,03,12,15,16,4.00
2012,03,12,15,17,4.00
2012,03,12,15,18,4.00
2012,03,12,15,19,4.00
2012,03,12,15,20,4.00
2012,03,12,15,21,4.00
2012,03,12,15,22,3.90
2012,03,12,15,23,3.90
2012,03,12,15,24,3.90
2012,03,12,15,25,4.00
2012,03,12,15,26,4.00
2012,03,12,15,27,4.00
2012,03,12,15,28,4.00
2012,03,12,15,29,4.00
2012,03,12,15,30,4.00
2012,03,12,15,31,4.10
2012,03,12,15,32,4.00
2012,03,12,15,33,4.00
2012,03,12,15,34,4.00
2012,03,12,15,35,4.00
2012,03,12,15,36,3.90
2012,03,12,15,37,3.90
2012,03,12,15,38,3.90
2012,03,12,15,39,4.00
2012,03,12,15,40,4.00
2012,03,12,15,41,4.00
2012,03,12,15,42,4.00
2012,03,12,15,43,4.00
2012,03,12,15,44,4.00
2012,03,12,15,45,4.00
2012,03,12,15,46,4.00
2012,03,12,15,47,3.90
2012,03,12,15,48,3.90
2012,03,12,15,49,3.90
2012,03,12,15,50,3.90
2012,03,12,15,51,3.90
2012,03,12,15,52,4.00
2012,03,12,15,53,4.00
2012,03,12,15,54,4.00
2012,03,12,15,55,4.00
2012,03,12,15,56,4.00
2012,03,12,15,57,4.10
2012,03,12,15,58,4.10
2012,03,12,15,59,4.10
2012,03,12,16,00,4.10
2012,03,12,16,01,4.10
2012,03,12,16,02,4.10
2012,03,12,16,03,4.10
2012,03,12,16,04,4.10
2012,03,12,16,05,4.10
2012,03,12,16,06,4.10
2012,03,12,16,07,4.10
2012,03,12,16,08,4.10
2012,03,12,16,09,4.10
2012,03,12,16,10,4.10
2012,03,12,16,11,4.10
2012,03,12,16,12,4.10
2012,03,12,16,13,4.20
2012,03,12,16,14,4.10
2012,03,12,16,15,4.10
2012,03,12,16,16,4.10
2012,03,12,16,17,4.10
2012,03,12,16,18,4.20
2012,03,12,16,19,4.20
2012,03,12,16,20,4.20
2012,03,12,16,21,4.20
2012,03,12,16,22,4.20
2012,03,12,16,23,4.20
2012,03,12,16,24,4.20
2012,03,12,16,25,4.20
2012,03,12,16,26,4.20
2012,03,12,16,27,4.20
2012,03,12,16,28,4.20
2012,03,12,16,29,4.20
2012,03,12,16,30,4.10
2012,03,12,16,31,4.10
2012,03,12,16,32,4.10
2012,03,12,16,33,4.10
2012,03,12,16,34,4.10
2012,03,12,16,35,4.10
2012,03,12,16,36,4.10
2012,03,12,16,37,4.20
2012,03,12,16,38,4.20
2012,03,12,16,39,4.20
2012,03,12,16,40,4.20
2012,03,12,16,41,4.20
2012,03,12,16,42,4.20
2012,03,12,16,43,4.20
2012,03,12,16,44,4.20
2012,03,12,16,45,4.20
2012,03,12,16,46,4.20
2012,03,12,16,47,4.30
2012,03,12,16,48,4.30
2012,03,12,16,49,4.30
2012,03,12,16,50,4.30
2012,03,12,16,51,4.30
2012,03,12,16,52,4.40
2012,03,12,16,53,4.40
2012,03,12,16,54,4.40
2012,03,12,16,55,4.40
2012,03,12,16,56,4.40
2012,03,12,16,57,4.40
2012,03,12,16,58,4.40
2012,03,12,16,59,4.40
2012,03,12,17,00,4.40
2012,03,12,17,01,4.40
2012,03,12,17,02,4.40
2012,03,12,17,03,4.40
2012,03,12,17,04,4.40
2012,03,12,17,05,4.40
2012,03,12,17,06,4.40
2012,03,12,17,07,4.40
2012,03,12,17,08,4.40
2012,03,12,17,09,4.40
2012,03,12,17,10,4.40
2012,03,12,17,11,4.40
2012,03,12,17,12,4.40
2012,03,12,17,13,4.40
2012,03,12,17,14,4.40
2012,03,12,17,15,4.40
2012,03,12,17,16,4.40
2012,03,12,17,17,4.40
2012,03,12,17,18,4.40
2012,03,12,17,19,4.40
2012,03,12,17,20,4.40
2012,03,12,17,21,4.40
2012,03,12,17,22,4.40
2012,03,12,17,23,4.40
2012,03,12,17,24,4.40
2012,03,12,17,25,4.50
2012,03,12,17,26,4.50
2012,03,12,17,27,4.50
2012,03,12,17,28,4.50
2012,03,12,17,29,4.50
2012,03,12,17,30,4.50
2012,03,12,17,31,4.50
2012,03,12,17,32,4.50
2012,03,12,17,33,4.50
2012,03,12,17,34,4.50
2012,03,12,17,35,4.50
2012,03,12,17,36,4.50
2012,03,12,17,37,4.40
2012,03,12,17,38,4.40
2012,03,12,17,39,4.40
2012,03,12,17,40,4.40
2012,03,12,17,41,4.50
2012,03,12,17,42,4.50
2012,03,12,17,43,4.50
2012,03,12,17,44,4.50
2012,03,12,17,45,4.50
2012,03,12,17,46,4.50
2012,03,12,17,47,4.50
2012,03,12,17,48,4.50
2012,03,12,17,49,4.60
2012,03,12,17,50,4.60
2012,03,12,17,51,4.60
2012,03,12,17,52,4.60
2012,03,12,17,53,4.60
2012,03,12,17,54,4.50
2012,03,12,17,55,4.50
2012,03,12,17,56,4.50
2012,03,12,17,57,4.50
2012,03,12,17,58,4.50
2012,03,12,17,59,4.50
2012,03,12,18,00,4.50
2012,03,12,18,01,4.50
2012,03,12,18,02,4.50
2012,03,12,18,03,4.50
2012,03,12,18,04,4.50
2012,03,12,18,05,4.50
2012,03,12,18,06,4.50
2012,03,12,18,07,4.50
2012,03,12,18,08,4.50
2012,03,12,18,09,4.50
2012,03,12,18,10,4.40
2012,03,12,18,11,4.40
2012,03,12,18,12,4.40
2012,03,12,18,13,4.40
2012,03,12,18,14,4.50
2012,03,12,18,15,4.50
2012,03,12,18,16,4.50
2012,03,12,18,17,4.50
2012,03,12,18,18,4.50
2012,03,12,18,19,4.50
2012,03,12,18,20,4.50
2012,03,12,18,21,4.50
2012,03,12,18,22,4.50
2012,03,12,18,23,4.50
2012,03,12,18,24,4.50
2012,03,12,18,25,4.50
2012,03,12,18,26,4.50
2012,03,12,18,27,4.50
2012,03,12,18,28,4.50
2012,03,12,18,29,4.50
2012,03,12,18,30,4.50
2012,03,12,18,31,4.50
2012,03,12,18,32,4.50
2012,03,12,18,33,4.40
2012,03,12,18,34,4.40
2012,03,12,18,35,4.50
2012,03,12,18,36,4.40
2012,03,12,18,37,4.50
2012,03,12,18,38,4.50
2012,03,12,18,39,4.50
2012,03,12,18,40,4.50
2012,03,12,18,41,4.60
2012,03,12,18,42,4.60
2012,03,12,18,43,4.60
2012,03,12,18,44,4.60
2012,03,12,18,45,4.60
2012,03,12,18,46,4.60
2012,03,12,18,47,4.60
2012,03,12,18,48,4.60
2012,03,12,18,49,4.60
2012,03,12,18,50,4.60
2012,03,12,18,51,4.60
2012,03,12,18,52,4.60
2012,03,12,18,53,4.50
2012,03,12,18,54,4.50
2012,03,12,18,55,4.50
2012,03,12,18,56,4.50
2012,03,12,18,57,4.50
2012,03,12,18,58,4.50
2012,03,12,18,59,4.50
2012,03,12,19,00,4.50
2012,03,12,19,01,4.40
2012,03,12,19,02,4.40
2012,03,12,19,03,4.40
2012,03,12,19,04,4.40
2012,03,12,19,05,4.40
2012,03,12,19,06,4.40
2012,03,12,19,07,4.40
2012,03,12,19,08,4.40
2012,03,12,19,09,4.40
2012,03,12,19,10,4.40
2012,03,12,19,11,4.40
2012,03,12,19,12,4.40
2012,03,12,19,13,4.40
2012,03,12,19,14,4.40
2012,03,12,19,15,4.40
2012,03,12,19,16,4.40
2012,03,12,19,17,4.40
2012,03,12,19,18,4.40
2012,03,12,19,19,4.40
2012,03,12,19,20,4.40
2012,03,12,19,21,4.40
2012,03,12,19,22,4.30
2012,03,12,19,23,4.30
2012,03,12,19,24,4.30
2012,03,12,19,25,4.30
2012,03,12,19,26,4.30
2012,03,12,19,27,4.20
2012,03,12,19,28,4.20
2012,03,12,19,29,4.20
2012,03,12,19,30,4.20
2012,03,12,19,31,4.20
2012,03,12,19,32,4.10
2012,03,12,19,33,4.10
2012,03,12,19,34,4.10
2012,03,12,19,35,4.10
2012,03,12,19,36,4.10
2012,03,12,19,37,4.10
2012,03,12,19,38,4.10
2012,03,12,19,39,4.10
2012,03,12,19,40,4.10
2012,03,12,19,41,4.10
2012,03,12,19,42,4.10
2012,03,12,19,43,4.10
2012,03,12,19,44,4.10
2012,03,12,19,45,4.10
2012,03,12,19,46,4.10
2012,03,12,19,47,4.10
2012,03,12,19,48,4.10
2012,03,12,19,49,4.10
2012,03,12,19,50,4.00
2012,03,12,19,51,4.00
2012,03,12,19,52,4.00
2012,03,12,19,53,3.90
2012,03,12,19,54,3.90
2012,03,12,19,55,3.90
2012,03,12,19,56,3.90
2012,03,12,19,57,3.90
2012,03,12,19,58,3.80
2012,03,12,19,59,3.80
2012,03,12,20,00,3.80
2012,03,12,20,01,3.80
2012,03,12,20,02,3.70
2012,03,12,20,03,3.70
2012,03,12,20,04,3.70
2012,03,12,20,05,3.70
2012,03,12,20,06,3.70
2012,03,12,20,07,3.70
2012,03,12,20,08,3.80
2012,03,12,20,09,3.80
2012,03,12,20,10,3.80
2012,03,12,20,11,3.80
2012,03,12,20,12,3.80
2012,03,12,20,13,3.80
2012,03,12,20,14,3.80
2012,03,12,20,15,3.80
2012,03,12,20,16,3.80
2012,03,12,20,17,3.80
2012,03,12,20,18,3.80
2012,03,12,20,19,3.80
2012,03,12,20,20,3.70
2012,03,12,20,21,3.70
2012,03,12,20,22,3.70
2012,03,12,20,23,3.70
2012,03,12,20,24,3.70
2012,03,12,20,25,3.60
2012,03,12,20,26,3.60
2012,03,12,20,27,3.60
2012,03,12,20,28,3.60
2012,03,12,20,29,3.60
2012,03,12,20,30,3.60
2012,03,12,20,31,3.60
2012,03,12,20,32,3.50
2012,03,12,20,33,3.50
2012,03,12,20,34,3.50
2012,03,12,20,35,3.50
2012,03,12,20,36,3.50
2012,03,12,20,37,3.50
2012,03,12,20,38,3.50
2012,03,12,20,39,3.50
2012,03,12,20,40,3.50
2012,03,12,20,41,3.50
2012,03,12,20,42,3.50
2012,03,12,20,43,3.40
2012,03,12,20,44,3.40
2012,03,12,20,45,3.40
2012,03,12,20,46,3.40
2012,03,12,20,47,3.50
2012,03,12,20,48,3.50
2012,03,12,20,49,3.50
2012,03,12,20,50,3.40
2012,03,12,20,51,3.40
2012,03,12,20,52,3.40
2012,03,12,20,53,3.40
2012,03,12,20,54,3.50
2012,03,12,20,55,3.50
2012,03,12,20,56,3.50
2012,03,12,20,57,3.50
2012,03,12,20,58,3.50
2012,03,12,20,59,3.50
2012,03,12,21,00,3.50
2012,03,12,21,01,3.60
2012,03,12,21,02,3.60
2012,03,12,21,03,3.60
2012,03,12,21,04,3.60
2012,03,12,21,05,3.50
2012,03,12,21,06,3.60
2012,03,12,21,07,3.60
2012,03,12,21,08,3.60
2012,03,12,21,09,3.60
2012,03,12,21,10,3.60
2012,03,12,21,11,3.60
2012,03,12,21,12,3.60
2012,03,12,21,13,3.60
2012,03,12,21,14,3.60
2012,03,12,21,15,3.60
2012,03,12,21,16,3.60
2012,03,12,21,17,3.60
2012,03,12,21,18,3.60
2012,03,12,21,19,3.60
2012,03,12,21,20,3.60
2012,03,12,21,21,3.50
2012,03,12,21,22,3.50
2012,03,12,21,23,3.50
2012,03,12,21,24,3.50
2012,03,12,21,25,3.50
2012,03,12,21,26,3.50
2012,03,12,21,27,3.50
2012,03,12,21,28,3.50
2012,03,12,21,29,3.50
2012,03,12,21,30,3.50
2012,03,12,21,31,3.50
2012,03,12,21,32,3.40
2012,03,12,21,33,3.40
2012,03,12,21,34,3.40
2012,03,12,21,35,3.40
2012,03,12,21,36,3.40
2012,03,12,21,37,3.40
2012,03,12,21,38,3.40
2012,03,12,21,39,3.40
2012,03,12,21,40,3.40
2012,03,12,21,41,3.40
2012,03,12,21,42,3.40
2012,03,12,21,43,3.30
2012,03,12,21,44,3.30
2012,03,12,21,45,3.30
2012,03,12,21,46,3.30
2012,03,12,21,47,3.30
2012,03,12,21,48,3.30
2012,03,12,21,49,3.30
2012,03,12,21,50,3.30
2012,03,12,21,51,3.20
2012,03,12,21,52,3.20
2012,03,12,21,53,3.20
2012,03,12,21,54,3.20
2012,03,12,21,55,3.20
2012,03,12,21,56,3.20
2012,03,12,21,57,3.20
2012,03,12,21,58,3.20
2012,03,12,21,59,3.20
2012,03,12,22,00,3.20
2012,03,12,22,01,3.20
2012,03,12,22,02,3.20
2012,03,12,22,03,3.20
2012,03,12,22,04,3.20
2012,03,12,22,05,3.20
2012,03,12,22,06,3.20
2012,03,12,22,07,3.20
2012,03,12,22,08,3.20
2012,03,12,22,09,3.20
2012,03,12,22,10,3.20
2012,03,12,22,11,3.20
2012,03,12,22,12,3.10
2012,03,12,22,13,3.00
2012,03,12,22,14,3.00
2012,03,12,22,15,2.90
2012,03,12,22,16,2.80
2012,03,12,22,17,2.80
2012,03,12,22,18,2.70
2012,03,12,22,19,2.60
2012,03,12,22,20,2.60
2012,03,12,22,21,2.60
2012,03,12,22,22,2.50
2012,03,12,22,23,2.50
2012,03,12,22,24,2.50
2012,03,12,22,25,2.50
2012,03,12,22,26,2.50
2012,03,12,22,27,2.50
2012,03,12,22,28,2.50
2012,03,12,22,29,2.50
2012,03,12,22,30,2.50
2012,03,12,22,31,2.40
2012,03,12,22,32,2.40
2012,03,12,22,33,2.40
2012,03,12,22,34,2.40
2012,03,12,22,35,2.30
2012,03,12,22,36,2.30
2012,03,12,22,37,2.30
2012,03,12,22,38,2.30
2012,03,12,22,39,2.40
2012,03,12,22,40,2.40
2012,03,12,22,41,2.40
2012,03,12,22,42,2.30
2012,03,12,22,43,2.30
2012,03,12,22,44,2.30
2012,03,12,22,45,2.30
2012,03,12,22,46,2.30
2012,03,12,22,47,2.30
2012,03,12,22,48,2.20
2012,03,12,22,49,2.20
2012,03,12,22,50,2.20
2012,03,12,22,51,2.20
2012,03,12,22,52,2.20
2012,03,12,22,53,2.20
2012,03,12,22,54,2.10
2012,03,12,22,55,2.10
2012,03,12,22,56,2.10
2012,03,12,22,57,2.10
2012,03,12,22,58,2.10
2012,03,12,22,59,2.10
2012,03,12,23,00,2.10
2012,03,12,23,01,2.10
2012,03,12,23,02,2.10
2012,03,12,23,03,2.10
2012,03,12,23,04,2.10
2012,03,12,23,05,2.10
2012,03,12,23,06,2.10
2012,03,12,23,07,2.10
2012,03,12,23,08,2.10
2012,03,12,23,09,2.10
2012,03,12,23,10,2.10
2012,03,12,23,11,2.10
2012,03,12,23,12,2.10
2012,03,12,23,13,2.10
2012,03,12,23,14,2.10
2012,03,12,23,15,2.10
2012,03,12,23,16,2.10
2012,03,12,23,17,2.10
2012,03,12,23,18,2.20
2012,03,12,23,19,2.20
2012,03,12,23,20,2.20
2012,03,12,23,21,2.20
2012,03,12,23,22,2.20
2012,03,12,23,23,2.20
2012,03,12,23,24,2.20
2012,03,12,23,25,2.20
2012,03,12,23,26,2.20
2012,03,12,23,27,2.20
2012,03,12,23,28,2.20
2012,03,12,23,29,2.20
2012,03,12,23,30,2.20
2012,03,12,23,31,2.20
2012,03,12,23,32,2.20
2012,03,12,23,33,2.20
2012,03,12,23,34,2.20
2012,03,12,23,35,2.20
2012,03,12,23,36,2.20
2012,03,12,23,37,2.20
2012,03,12,23,38,2.20
2012,03,12,23,39,2.20
2012,03,12,23,40,2.20
2012,03,12,23,41,2.20